When you browse on this site, cookies collect data to enhance your experience and personalize the content and advertising you see.
Visit our Privacy Policy to learn more. By continuing to use the site, you agree to this use of cookies and data.
  • In Hungary
  • List of Countries
  • For 7 days
  • Water Temperature
  • Satellite Maps
  • Weather Map
  • News
  • Weather Widgets
  • user-avatar
    Login

    Hourly Weather Chwalowice

    Today, 26 May, Sunday

    Time Temperature Precipitation Wind Pressure Humidity
    00:00 +13°C° 0 mm 1 mps 740 mmHg 89%
    01:00 +12°C° 0 mm 1 mps 740 mmHg 90%
    02:00 +12°C° 0 mm 1 mps 740 mmHg 90%
    03:00 +12°C° 0 mm 1 mps 740 mmHg 91%
    04:00 +11°C° 0 mm 1 mps 741 mmHg 91%
    05:00 +13°C° 0 mm 1 mps 741 mmHg 87%
    06:00 +15°C° 0 mm 2 mps 741 mmHg 83%
    07:00 +17°C° 0 mm 2 mps 741 mmHg 79%
    08:00 +18°C° 0.2 mm 3 mps 741 mmHg 75%
    09:00 +19°C° 0.2 mm 3 mps 741 mmHg 71%
    10:00 +20°C° 0.2 mm 4 mps 741 mmHg 66%
    11:00 +21°C° 0.1 mm 4 mps 740 mmHg 64%
    12:00 +21°C° 0.1 mm 4 mps 740 mmHg 62%
    13:00 +22°C° 0.1 mm 4 mps 740 mmHg 59%
    14:00 +22°C° 0 mm 3 mps 740 mmHg 58%
    15:00 +22°C° 0 mm 3 mps 740 mmHg 57%
    16:00 +22°C° 0 mm 3 mps 739 mmHg 56%
    17:00 +21°C° 0 mm 2 mps 739 mmHg 62%
    18:00 +20°C° 0 mm 1 mps 739 mmHg 67%
    19:00 +19°C° 0 mm 1 mps 739 mmHg 73%
    20:00 +18°C° 0 mm 1 mps 739 mmHg 77%
    21:00 +16°C° 0 mm 1 mps 739 mmHg 81%
    22:00 +15°C° 0 mm 2 mps 739 mmHg 85%
    23:00 +15°C° 0 mm 2 mps 739 mmHg 87%

    Tomorrow, 27 May, Monday

    Time Temperature Precipitation Wind Pressure Humidity
    00:00 +14°C° 0 mm 2 mps 739 mmHg 90%
    01:00 +14°C° 0 mm 2 mps 739 mmHg 92%
    02:00 +14°C° 0 mm 2 mps 739 mmHg 92%
    03:00 +13°C° 0 mm 2 mps 739 mmHg 93%
    04:00 +13°C° 0 mm 2 mps 738 mmHg 93%
    05:00 +15°C° 0 mm 2 mps 739 mmHg 88%
    06:00 +17°C° 0 mm 3 mps 739 mmHg 83%
    07:00 +19°C° 0 mm 3 mps 739 mmHg 78%
    08:00 +20°C° 0.3 mm 3 mps 739 mmHg 76%
    09:00 +21°C° 0.3 mm 4 mps 739 mmHg 73%
    10:00 +22°C° 0.3 mm 4 mps 739 mmHg 71%
    11:00 +22°C° 0.3 mm 4 mps 738 mmHg 68%
    12:00 +23°C° 0.3 mm 4 mps 738 mmHg 65%
    13:00 +25°C° 0.3 mm 4 mps 738 mmHg 61%
    14:00 +25°C° 0.3 mm 3 mps 738 mmHg 63%
    15:00 +25°C° 0.3 mm 3 mps 737 mmHg 65%
    16:00 +24°C° 0.3 mm 3 mps 737 mmHg 66%
    17:00 +23°C° 0.2 mm 2 mps 737 mmHg 71%
    18:00 +21°C° 0.2 mm 2 mps 737 mmHg 76%
    19:00 +21°C° 0.2 mm 1 mps 737 mmHg 81%
    20:00 +20°C° 0.1 mm 1 mps 737 mmHg 84%
    21:00 +19°C° 0.1 mm 1 mps 737 mmHg 86%
    22:00 +19°C° 0.1 mm 1 mps 737 mmHg 89%
    23:00 +18°C° 0.2 mm 1 mps 736 mmHg 91%

    Day after tomorrow, 28 May, Tuesday

    Time Temperature Precipitation Wind Pressure Humidity
    00:00 +18°C° 0.2 mm 1 mps 736 mmHg 93%
    01:00 +18°C° 0.2 mm 1 mps 735 mmHg 95%
    02:00 +18°C° 0.2 mm 1 mps 735 mmHg 95%
    03:00 +16°C° 0.2 mm 1 mps 735 mmHg 96%
    04:00 +16°C° 0.2 mm 1 mps 734 mmHg 96%
    05:00 +17°C° 0 mm 2 mps 734 mmHg 92%
    06:00 +19°C° 0 mm 2 mps 734 mmHg 89%
    07:00 +20°C° 0 mm 2 mps 734 mmHg 85%
    08:00 +21°C° 0.1 mm 3 mps 734 mmHg 78%
    09:00 +24°C° 0.1 mm 3 mps 734 mmHg 72%
    10:00 +25°C° 0.1 mm 4 mps 734 mmHg 65%
    11:00 +25°C° 0.1 mm 3 mps 733 mmHg 65%
    12:00 +25°C° 0.1 mm 3 mps 733 mmHg 64%
    13:00 +25°C° 0.1 mm 3 mps 733 mmHg 64%
    14:00 +24°C° 2.1 mm 3 mps 732 mmHg 71%
    15:00 +21°C° 2.1 mm 2 mps 732 mmHg 78%
    16:00 +20°C° 2.1 mm 2 mps 732 mmHg 85%
    17:00 +21°C° 0.3 mm 1 mps 732 mmHg 86%
    18:00 +20°C° 0.3 mm 1 mps 732 mmHg 87%
    19:00 +20°C° 0.3 mm 1 mps 732 mmHg 89%
    20:00 +19°C° 0.6 mm 1 mps 732 mmHg 90%
    21:00 +17°C° 0.6 mm 2 mps 732 mmHg 92%
    22:00 +16°C° 0.6 mm 2 mps 732 mmHg 94%
    23:00 +16°C° 0.1 mm 2 mps 733 mmHg 95%

    29 May, Wednesday

    Time Temperature Precipitation Wind Pressure Humidity
    00:00 +15°C° 0.1 mm 2 mps 733 mmHg 96%
    01:00 +14°C° 0.1 mm 3 mps 733 mmHg 97%
    02:00 +14°C° 0.1 mm 3 mps 733 mmHg 97%
    03:00 +14°C° 0.1 mm 3 mps 734 mmHg 96%
    04:00 +13°C° 0.1 mm 4 mps 734 mmHg 95%
    05:00 +13°C° 0.2 mm 4 mps 734 mmHg 95%
    06:00 +13°C° 0.2 mm 3 mps 735 mmHg 94%
    07:00 +13°C° 0.2 mm 3 mps 735 mmHg 93%
    08:00 +14°C° 0.1 mm 3 mps 736 mmHg 90%
    09:00 +14°C° 0.1 mm 3 mps 736 mmHg 88%
    10:00 +16°C° 0.1 mm 3 mps 736 mmHg 85%
    11:00 +16°C° 0 mm 3 mps 737 mmHg 83%
    12:00 +17°C° 0 mm 3 mps 737 mmHg 81%
    13:00 +17°C° 0 mm 3 mps 737 mmHg 79%
    14:00 +17°C° 0.6 mm 4 mps 737 mmHg 83%
    15:00 +15°C° 0.6 mm 4 mps 737 mmHg 87%
    16:00 +14°C° 0.6 mm 4 mps 738 mmHg 90%
    17:00 +14°C° 0.6 mm 4 mps 738 mmHg 92%
    18:00 +13°C° 0.6 mm 4 mps 738 mmHg 93%
    19:00 +12°C° 0.6 mm 4 mps 738 mmHg 94%
    20:00 +12°C° 0.3 mm 3 mps 739 mmHg 95%
    21:00 +12°C° 0.3 mm 3 mps 739 mmHg 95%
    22:00 +12°C° 0.3 mm 3 mps 739 mmHg 96%
    23:00 +12°C° 0.3 mm 4 mps 740 mmHg 95%

    30 May, Thursday

    Time Temperature Precipitation Wind Pressure Humidity
    00:00 +11°C° 0.3 mm 4 mps 740 mmHg 95%
    01:00 +10°C° 0.3 mm 5 mps 740 mmHg 94%
    02:00 +9°C° 0.1 mm 5 mps 740 mmHg 93%
    03:00 +8°C° 0.1 mm 5 mps 741 mmHg 92%
    04:00 +7°C° 0.1 mm 5 mps 741 mmHg 91%
    05:00 +7°C° 0.1 mm 5 mps 741 mmHg 90%
    06:00 +7°C° 0.1 mm 4 mps 742 mmHg 90%
    07:00 +7°C° 0.1 mm 4 mps 742 mmHg 89%
    08:00 +7°C° 0.1 mm 4 mps 743 mmHg 89%
    09:00 +7°C° 0.1 mm 4 mps 743 mmHg 88%
    10:00 +7°C° 0.1 mm 4 mps 744 mmHg 88%
    11:00 +8°C° 0.1 mm 4 mps 744 mmHg 87%
    12:00 +8°C° 0.1 mm 4 mps 744 mmHg 87%
    13:00 +10°C° 0.1 mm 4 mps 744 mmHg 86%
    14:00 +10°C° 0.1 mm 4 mps 745 mmHg 86%
    15:00 +11°C° 0.1 mm 3 mps 745 mmHg 86%
    16:00 +12°C° 0.1 mm 3 mps 745 mmHg 85%
    17:00 +13°C° 0 mm 2 mps 745 mmHg 86%
    18:00 +13°C° 0 mm 2 mps 745 mmHg 86%
    19:00 +12°C° 0 mm 1 mps 745 mmHg 86%
    20:00 +11°C° 0 mm 1 mps 746 mmHg 88%
    21:00 +9°C° 0 mm 2 mps 746 mmHg 90%
    22:00 +8°C° 0 mm 2 mps 746 mmHg 91%
    23:00 +8°C° 0 mm 2 mps 746 mmHg 92%

    31 May, Friday

    Time Temperature Precipitation Wind Pressure Humidity
    00:00 +8°C° 0 mm 2 mps 747 mmHg 92%
    01:00 +7°C° 0 mm 2 mps 747 mmHg 92%
    02:00 +7°C° 0 mm 2 mps 747 mmHg 93%
    03:00 +7°C° 0 mm 2 mps 747 mmHg 93%
    04:00 +6°C° 0 mm 2 mps 747 mmHg 93%
    05:00 +8°C° 0 mm 2 mps 748 mmHg 87%
    06:00 +10°C° 0 mm 2 mps 748 mmHg 82%
    07:00 +13°C° 0 mm 2 mps 748 mmHg 76%
    08:00 +14°C° 0 mm 2 mps 748 mmHg 68%
    09:00 +16°C° 0 mm 2 mps 748 mmHg 60%
    10:00 +17°C° 0 mm 2 mps 748 mmHg 52%
    11:00 +18°C° 0 mm 2 mps 748 mmHg 51%
    12:00 +19°C° 0 mm 2 mps 748 mmHg 50%
    13:00 +20°C° 0 mm 1 mps 748 mmHg 49%
    14:00 +19°C° 0.1 mm 2 mps 748 mmHg 56%
    15:00 +18°C° 0.1 mm 2 mps 748 mmHg 62%
    16:00 +18°C° 0.1 mm 3 mps 748 mmHg 68%
    17:00 +17°C° 0 mm 2 mps 748 mmHg 71%
    18:00 +16°C° 0 mm 1 mps 749 mmHg 73%
    19:00 +14°C° 0 mm 0 mps 749 mmHg 76%
    20:00 +13°C° 0 mm 0 mps 749 mmHg 79%
    21:00 +11°C° 0 mm 0 mps 749 mmHg 81%
    22:00 +10°C° 0 mm 0 mps 749 mmHg 84%
    23:00 +10°C° 0 mm 0 mps 749 mmHg 85%
    Show more